EN

Hourly Weather Bolshoe Aksenovo

Today, 28 October, Wednesday

Time Temperature Precipitation Wind Pressure Humidity
00:00 +6°C° 0 mm 4 mps 755 mmHg 86%
01:00 +6°C° 0 mm 4 mps 755 mmHg 86%
02:00 +5°C° 0 mm 4 mps 755 mmHg 86%
03:00 +5°C° 0 mm 4 mps 755 mmHg 86%
04:00 +5°C° 0 mm 4 mps 754 mmHg 86%
05:00 +5°C° 0 mm 4 mps 754 mmHg 86%
06:00 +5°C° 0 mm 4 mps 754 mmHg 85%
07:00 +5°C° 0 mm 4 mps 754 mmHg 84%
08:00 +6°C° 0 mm 5 mps 754 mmHg 82%
09:00 +6°C° 0 mm 5 mps 754 mmHg 79%
10:00 +7°C° 0 mm 5 mps 754 mmHg 75%
11:00 +8°C° 0 mm 5 mps 754 mmHg 72%
12:00 +9°C° 0 mm 5 mps 754 mmHg 71%
13:00 +10°C° 0 mm 4 mps 754 mmHg 70%
14:00 +10°C° 0 mm 4 mps 754 mmHg 70%
15:00 +8°C° 0 mm 4 mps 754 mmHg 74%
16:00 +9°C° 0 mm 3 mps 754 mmHg 77%
17:00 +8°C° 0 mm 3 mps 754 mmHg 81%
18:00 +7°C° 0 mm 3 mps 754 mmHg 84%
19:00 +7°C° 0 mm 3 mps 755 mmHg 86%
20:00 +6°C° 0 mm 2 mps 755 mmHg 88%
21:00 +6°C° 0 mm 2 mps 755 mmHg 89%
22:00 +6°C° 0 mm 2 mps 755 mmHg 90%
23:00 +6°C° 0 mm 2 mps 755 mmHg 92%

Tomorrow, 29 October, Thursday

Time Temperature Precipitation Wind Pressure Humidity
00:00 +6°C° 0 mm 2 mps 755 mmHg 92%
01:00 +5°C° 0 mm 2 mps 755 mmHg 93%
02:00 +5°C° 0 mm 2 mps 755 mmHg 94%
03:00 +5°C° 0 mm 2 mps 754 mmHg 94%
04:00 +5°C° 0 mm 2 mps 754 mmHg 94%
05:00 +5°C° 0 mm 2 mps 754 mmHg 95%
06:00 +4°C° 0 mm 3 mps 754 mmHg 93%
07:00 +4°C° 0 mm 3 mps 754 mmHg 91%
08:00 +4°C° 0 mm 3 mps 754 mmHg 89%
09:00 +5°C° 0 mm 3 mps 754 mmHg 84%
10:00 +8°C° 0 mm 3 mps 754 mmHg 80%
11:00 +9°C° 0 mm 3 mps 754 mmHg 75%
12:00 +9°C° 0 mm 3 mps 753 mmHg 73%
13:00 +9°C° 0 mm 3 mps 753 mmHg 72%
14:00 +9°C° 0 mm 3 mps 753 mmHg 71%
15:00 +9°C° 0 mm 3 mps 752 mmHg 74%
16:00 +8°C° 0 mm 3 mps 752 mmHg 77%
17:00 +7°C° 0 mm 3 mps 752 mmHg 80%
18:00 +5°C° 0 mm 3 mps 752 mmHg 81%
19:00 +5°C° 0 mm 3 mps 752 mmHg 82%
20:00 +4°C° 0 mm 3 mps 752 mmHg 83%
21:00 +5°C° 0 mm 2 mps 752 mmHg 84%
22:00 +5°C° 0 mm 2 mps 752 mmHg 85%
23:00 +4°C° 0 mm 2 mps 751 mmHg 86%

Day after tomorrow, 30 October, Friday

Time Temperature Precipitation Wind Pressure Humidity
00:00 +4°C° 0 mm 2 mps 751 mmHg 86%
01:00 +4°C° 0 mm 2 mps 751 mmHg 86%
02:00 +3°C° 0 mm 2 mps 750 mmHg 86%
03:00 +3°C° 0 mm 2 mps 750 mmHg 86%
04:00 +3°C° 0 mm 2 mps 750 mmHg 86%
05:00 +3°C° 0 mm 2 mps 750 mmHg 86%
06:00 +3°C° 0 mm 2 mps 750 mmHg 85%
07:00 +3°C° 0 mm 2 mps 750 mmHg 85%
08:00 +3°C° 0 mm 2 mps 750 mmHg 84%
09:00 +4°C° 0 mm 2 mps 750 mmHg 81%
10:00 +5°C° 0 mm 2 mps 750 mmHg 79%
11:00 +6°C° 0 mm 2 mps 750 mmHg 76%
12:00 +6°C° 0 mm 2 mps 750 mmHg 76%
13:00 +8°C° 0 mm 1 mps 750 mmHg 76%
14:00 +8°C° 0 mm 1 mps 749 mmHg 76%
15:00 +7°C° 0 mm 1 mps 749 mmHg 79%
16:00 +7°C° 0 mm 1 mps 749 mmHg 83%
17:00 +6°C° 0 mm 1 mps 749 mmHg 86%
18:00 +6°C° 0 mm 1 mps 749 mmHg 87%
19:00 +6°C° 0 mm 1 mps 749 mmHg 89%
20:00 +6°C° 0 mm 1 mps 750 mmHg 90%
21:00 +5°C° 0 mm 1 mps 749 mmHg 91%
22:00 +4°C° 0 mm 0 mps 749 mmHg 92%
23:00 +4°C° 0 mm 0 mps 749 mmHg 92%

31 October, Saturday

Time Temperature Precipitation Wind Pressure Humidity
00:00 +4°C° 0 mm 0 mps 749 mmHg 93%
01:00 +4°C° 0 mm 0 mps 750 mmHg 93%
02:00 +3°C° 0 mm 0 mps 750 mmHg 93%
03:00 +4°C° 0 mm 0 mps 750 mmHg 93%
04:00 +4°C° 0 mm 0 mps 750 mmHg 93%
05:00 +4°C° 0 mm 0 mps 751 mmHg 93%
06:00 +5°C° 0 mm 1 mps 751 mmHg 94%
07:00 +6°C° 0 mm 1 mps 751 mmHg 94%
08:00 +6°C° 0 mm 1 mps 752 mmHg 94%
09:00 +7°C° 0 mm 1 mps 752 mmHg 91%
10:00 +8°C° 0 mm 1 mps 753 mmHg 88%
11:00 +8°C° 0 mm 2 mps 753 mmHg 85%
12:00 +8°C° 0 mm 2 mps 753 mmHg 83%
13:00 +8°C° 0 mm 2 mps 753 mmHg 82%
14:00 +9°C° 0 mm 1 mps 754 mmHg 80%
15:00 +9°C° 0 mm 1 mps 754 mmHg 82%
16:00 +7°C° 0 mm 2 mps 754 mmHg 84%
17:00 +7°C° 0 mm 2 mps 755 mmHg 85%
18:00 +7°C° 0 mm 2 mps 755 mmHg 84%
19:00 +8°C° 0 mm 1 mps 755 mmHg 84%
20:00 +8°C° 0 mm 1 mps 756 mmHg 83%
21:00 +7°C° 0.1 mm 2 mps 756 mmHg 84%
22:00 +6°C° 0.1 mm 2 mps 756 mmHg 85%
23:00 +6°C° 0.1 mm 2 mps 756 mmHg 87%

1 November, Sunday

Time Temperature Precipitation Wind Pressure Humidity
00:00 +6°C° 0 mm 2 mps 757 mmHg 88%
01:00 +6°C° 0 mm 2 mps 757 mmHg 89%
02:00 +5°C° 0 mm 2 mps 757 mmHg 89%
03:00 +5°C° 0 mm 2 mps 758 mmHg 90%
04:00 +4°C° 0 mm 2 mps 758 mmHg 91%
05:00 +3°C° 0 mm 2 mps 758 mmHg 92%
06:00 +3°C° 0 mm 2 mps 759 mmHg 91%
07:00 +3°C° 0 mm 2 mps 759 mmHg 89%
08:00 +4°C° 0 mm 1 mps 759 mmHg 88%
09:00 +4°C° 0 mm 1 mps 759 mmHg 83%
10:00 +5°C° 0 mm 1 mps 759 mmHg 79%
11:00 +5°C° 0 mm 1 mps 760 mmHg 74%
12:00 +5°C° 0 mm 1 mps 760 mmHg 72%
13:00 +5°C° 0 mm 1 mps 760 mmHg 71%
14:00 +5°C° 0 mm 1 mps 759 mmHg 69%
15:00 +4°C° 0 mm 1 mps 760 mmHg 72%
16:00 +3°C° 0 mm 1 mps 760 mmHg 75%
17:00 +2°C° 0 mm 1 mps 760 mmHg 78%
18:00 +2°C° 0 mm 1 mps 760 mmHg 80%
19:00 +1°C° 0 mm 1 mps 760 mmHg 83%
20:00 +1°C° 0 mm 1 mps 760 mmHg 85%
21:00 +1°C° 0 mm 1 mps 760 mmHg 86%
22:00 +1°C° 0 mm 1 mps 760 mmHg 88%
23:00 0°C° 0 mm 1 mps 760 mmHg 89%

2 November, Monday

Time Temperature Precipitation Wind Pressure Humidity
00:00 0°C° 0 mm 1 mps 760 mmHg 89%
01:00 0°C° 0 mm 1 mps 760 mmHg 89%
02:00 0°C° 0 mm 1 mps 760 mmHg 89%
03:00 0°C° 0 mm 1 mps 760 mmHg 90%
04:00 0°C° 0 mm 1 mps 760 mmHg 90%
05:00 0°C° 0 mm 1 mps 760 mmHg 90%
06:00 0°C° 0 mm 1 mps 760 mmHg 89%
07:00 -1°C° 0 mm 2 mps 760 mmHg 88%
08:00 -1°C° 0 mm 2 mps 760 mmHg 86%
09:00 +1°C° 0 mm 2 mps 760 mmHg 82%
10:00 +3°C° 0 mm 2 mps 760 mmHg 77%
11:00 +3°C° 0 mm 3 mps 760 mmHg 72%
12:00 +3°C° 0 mm 3 mps 760 mmHg 72%
13:00 +3°C° 0 mm 3 mps 759 mmHg 72%
14:00 +4°C° 0 mm 3 mps 759 mmHg 72%
15:00 +3°C° 0 mm 3 mps 759 mmHg 77%
16:00 +2°C° 0 mm 3 mps 759 mmHg 82%
17:00 +1°C° 0 mm 3 mps 759 mmHg 87%
18:00 +1°C° 0 mm 3 mps 759 mmHg 88%
19:00 +1°C° 0 mm 3 mps 759 mmHg 89%
20:00 0°C° 0 mm 3 mps 759 mmHg 90%
21:00 +1°C° 0 mm 3 mps 759 mmHg 89%
22:00 +1°C° 0 mm 3 mps 758 mmHg 89%
23:00 +1°C° 0 mm 3 mps 758 mmHg 88%
Show more